Regional Weather Roundup
Issued by NWS

Home | Current Version | Previous Version | Text Only | Print | Product List | Glossary Off
Versions: 1 2 3 4 5 6 7 8 9 10 11 12 13 14 15 16 17 18 19 20 21 22 23 24 25 26 27 28 29 30 31 32 33 34 35 36 37 38 39 40 41 42 43 44 45 46 47 48 49 50

157
ASUS43 KIND 241159
RWRIN

WEATHER ROUNDUP FOR INDIANA
NATIONAL WEATHER SERVICE INDIANAPOLIS IN
800 AM EDT TUE MAY 24 2016

NOTE: "FAIR" INDICATES FEW OR NO CLOUDS BELOW 12,000 FEET WITH NO
SIGNIFICANT WEATHER AND/OR OBSTRUCTIONS TO VISIBILITY.

* - STATION DOES NOT REPORT WEATHER SUCH AS PRECIPITATION OR FOG.

+ - STATION NOT QUALITY CONTROLLED BY THE NATIONAL WEATHER SERVICE.
    USE DATA WITH CAUTION...ESPECIALLY DEWPOINT AND RELATIVE
    HUMIDITY OBSERVATIONS.

INZ001>003-010>013-019-020-241300-
NORTHWEST INDIANA

CITY           SKY/WX    TMP DP  RH WIND       PRES   REMARKS
GARY /AIRPORT/ PTSUNNY   66  52  59 S5        30.01R
RENSSELAER +   CLOUDY    63  45  51 S6        30.03R

$$

LMZ046-743>745-241300-
SOUTHERN LAKE MICHIGAN

STATION/POSITION TIME  TEMP    WIND        PRES    WAVE
                       AIR SEA DIR/SP/G            HT
                 (UTC) (F)     (DEG/KT/KT) (MB)    (FT)
BURNS HARBOR     1101   64     190/ 11/ 15 1016.3R
MICHIGAN CITY    1100   66     160/ 13/ 14   N/A
5NW MICH CITY    1100   62 56  200/  8/ 10   N/A     1

$$

INZ004-005-014>016-021>024-241300-
NORTH CENTRAL INDIANA

CITY           SKY/WX    TMP DP  RH WIND       PRES   REMARKS
ELKHART        SUNNY     55  54  94 MISG      30.04R
GOSHEN         SUNNY     60  44  55 SW7       30.04R
6HR MIN TEMP:  45; 6HR MAX TEMP:  60;

SOUTH BEND     SUNNY     61  44  53 SW8       30.04R
6HR MIN TEMP:  51; 6HR MAX TEMP:  61;


$$

INZ006>009-017-018-025>027-241300-
NORTHEAST INDIANA

CITY           SKY/WX    TMP DP  RH WIND       PRES   REMARKS
ANGOLA *+      SUNNY     55  54  94 CALM      30.05R
FORT WAYNE     MOSUNNY   58  49  72 SW5       30.07R
6HR MIN TEMP:  49; 6HR MAX TEMP:  58;


$$

INZ028-029-035-036-043>045-051>053-241300-
WEST CENTRAL INDIANA

CITY           SKY/WX    TMP DP  RH WIND       PRES   REMARKS
CRAWFORDSVL +  CLOUDY    58  47  67 SE5       30.06R
6HR MIN TEMP:  49; 6HR MAX TEMP:  58;

GREENCASTLE +  CLOUDY    55  54  94 CALM      30.07R
LAFAYETTE      MOSUNNY   60  49  66 E3        30.04R
6HR MIN TEMP:  50; 6HR MAX TEMP:  60;

TERRE HAUTE    CLOUDY    59  49  69 CALM      30.05R
6HR MIN TEMP:  51; 6HR MAX TEMP:  59;


$$

INZ030>032-037>040-046>048-054>057-064-065-241300-
CENTRAL INDIANA

CITY           SKY/WX    TMP DP  RH WIND       PRES   REMARKS
COLUMBUS       SUNNY     54  54 100 CALM      30.09R
FRANKFORT +      N/A     61  37  39 CALM      30.07R
6HR MIN TEMP:  50; 6HR MAX TEMP:  61;

INDIANAPOLIS   CLOUDY    60  50  69 SE3       30.06R
6HR MIN TEMP:  54; 6HR MAX TEMP:  62;

-EAGLE CREEK   CLOUDY    59  51  75 CALM      30.07R
6HR MIN TEMP:  51; 6HR MAX TEMP:  59;

KOKOMO *+      SUNNY     61  46  59 S6        30.06S
6HR MIN TEMP:  52; 6HR MAX TEMP:  61;

SHELBYVILLE    SUNNY     59  52  77 SE3       30.08R
6HR MIN TEMP:  51; 6HR MAX TEMP:  59;


$$

INZ033-034-041-042-049-050-058-059-241300-
EAST CENTRAL INDIANA

CITY           SKY/WX    TMP DP  RH WIND       PRES   REMARKS
MUNCIE         SUNNY     63  49  60 S7        30.08R
6HR MIN TEMP:  56; 6HR MAX TEMP:  63;


$$

INZ060-061-067>069-081>083-085>088-241300-
SOUTHWEST INDIANA

CITY           SKY/WX    TMP DP  RH WIND       PRES   REMARKS
EVANSVILLE     MOSUNNY   60  52  74 CALM      30.06S
6HR MIN TEMP:  54; 6HR MAX TEMP:  62;

HUNTINGBURG *+ SUNNY     57  48  72 SE5       30.07S
6HR MIN TEMP:  52; 6HR MAX TEMP:  61;


$$

INZ062-063-066-070>080-084-089>092-241300-
SOUTH CENTRAL AND SOUTHEAST INDIANA

CITY           SKY/WX    TMP DP  RH WIND       PRES   REMARKS
BLOOMINGTON    SUNNY     57  50  77 SE5       30.07R
6HR MIN TEMP:  49; 6HR MAX TEMP:  57;

MADISON *+     SUNNY     55  54  94 CALM      30.11R
SEYMOUR +        N/A     59  54  82 CALM      30.09R HAZE

$$





USA.gov is the U.S. government's official web portal to all federal, state and local government web resources and services.